{"data":{"norad_id":67873,"epoch":"2026-05-25T04:34:09.510240Z","epoch_age_seconds":55632,"freshness":"FRESH","line1":"1 67873U 26034Z   26145.19038785  .00016337  00000+0  49341-3 0  9998","line2":"2 67873  53.1584 207.1029 0000997  71.9629 288.1482 15.34412105 15778","mean_motion":15.34412105,"eccentricity":9.97e-5,"inclination_deg":53.1584,"raan_deg":207.1029,"arg_perigee_deg":71.9629,"mean_anomaly_deg":288.1482,"bstar":0.00049341,"rev_number":1577,"period_min":93.84701771497,"perigee_km":461.98523364772,"apogee_km":463.34929001753,"semimajor_km":6840.8042618326,"source":"CELESTRAK","updated_at":"2026-05-25T13:38:21.729776Z"}}